TimeAKDT,TemperatureF,Dew PointF,Humidity,Sea Level PressureIn,VisibilityMPH,Wind Direction,Wind SpeedMPH,Gust SpeedMPH,PrecipitationIn,Events,Conditions,WindDirDegrees,DateUTC
12:54 AM,15.1,-2.9,45,29.94,10.0,WNW,10.4,-,N/A,,Clear,300,2013-03-21 08:54:00
1:54 AM,14.0,-2.9,47,29.96,10.0,WNW,11.5,-,N/A,,Clear,300,2013-03-21 09:54:00
2:54 AM,15.1,-4.0,43,29.98,10.0,NW,11.5,-,N/A,,Mostly Cloudy,310,2013-03-21 10:54:00
3:54 AM,14.0,-4.0,45,30.01,10.0,NW,9.2,-,N/A,,Overcast,310,2013-03-21 11:54:00
4:54 AM,14.0,-4.0,45,30.02,10.0,NW,9.2,-,N/A,,Partly Cloudy,310,2013-03-21 12:54:00
5:54 AM,14.0,-5.1,43,30.04,10.0,NW,13.8,-,N/A,,Overcast,310,2013-03-21 13:54:00
6:54 AM,14.0,-6.0,41,30.07,10.0,NW,12.7,-,N/A,,Clear,320,2013-03-21 14:54:00
7:54 AM,14.0,-6.0,41,30.09,10.0,NW,13.8,-,N/A,,Clear,320,2013-03-21 15:54:00
8:54 AM,14.0,-6.0,41,30.12,9.0,NW,16.1,23.0,N/A,,Clear,320,2013-03-21 16:54:00
9:54 AM,17.1,-2.9,41,30.13,10.0,WNW,18.4,27.6,N/A,,Clear,290,2013-03-21 17:54:00
10:38 AM,19.4,-2.2,39,30.14,5.0,WNW,20.7,29.9,N/A,,Haze,290,2013-03-21 18:38:00
10:54 AM,19.0,-0.9,42,30.15,6.0,WNW,20.7,28.8,N/A,,Haze,290,2013-03-21 18:54:00
11:54 AM,19.9,-0.9,40,30.17,4.0,WNW,20.7,28.8,N/A,,Haze,290,2013-03-21 19:54:00
12:54 PM,21.9,-0.0,38,30.19,10.0,WNW,19.6,-,N/A,,Clear,290,2013-03-21 20:54:00
1:54 PM,23.0,1.0,39,30.21,10.0,West,18.4,-,N/A,,Clear,280,2013-03-21 21:54:00
2:54 PM,24.1,1.0,37,30.22,10.0,WNW,21.9,-,N/A,,Clear,290,2013-03-21 22:54:00
3:54 PM,24.1,-0.9,34,30.24,10.0,WNW,16.1,23.0,N/A,,Clear,290,2013-03-21 23:54:00
4:54 PM,24.1,1.0,37,30.26,10.0,WNW,13.8,-,N/A,,Clear,290,2013-03-22 00:54:00
5:54 PM,23.0,-0.0,37,30.27,10.0,WNW,15.0,-,N/A,,Clear,290,2013-03-22 01:54:00
6:54 PM,21.9,-2.9,34,30.30,10.0,WNW,11.5,-,N/A,,Clear,300,2013-03-22 02:54:00
7:54 PM,19.9,-4.0,35,30.32,10.0,NW,10.4,-,N/A,,Clear,320,2013-03-22 03:54:00
8:54 PM,19.0,-2.9,38,30.35,10.0,NW,11.5,-,N/A,,Clear,310,2013-03-22 04:54:00
9:54 PM,18.0,-2.9,40,30.35,10.0,WNW,11.5,-,N/A,,Clear,300,2013-03-22 05:54:00
10:54 PM,16.0,-0.9,47,30.37,10.0,WNW,12.7,-,N/A,,Clear,290,2013-03-22 06:54:00
11:54 PM,15.1,-0.9,49,30.38,10.0,WNW,13.8,-,N/A,,Clear,290,2013-03-22 07:54:00